User: anonymous   Login
Location: Aressy
(43.2833°N, 0.3167°W)
Time: 23:53:25
(UTC+00:00)
Language:

Cosmos 2266 Rocket - Orbit

View from above orbital plane
View from above orbital plane
View from above satellite
View from above satellite

Ground track
Ground track

The orbit data is extracted from the following two-line orbital elements,

1 22889U 93070B   21104.23667203  .00000063  00000-0  47677-4 0  9999
2 22889  82.9488 358.3389 0048557 273.9238  85.6370 13.77941935379773
Epoch (UTC): 14 April 2021 05:40:48
Eccentricity: 0.0048557
inclination: 82.9488°
perigee height: 935 km
apogee height: 1007 km
right ascension of ascending node: 358.3389°
argument of perigee: 273.9238°
revolutions per day: 13.77941935
mean anomaly at epoch: 85.6370°
orbit number at epoch: 37977

The dashed part of the orbit path shows where the satellite is in the earth's shadow,  

DLR